When you browse on this site, cookies collect data to enhance your experience and personalize the content and advertising you see.
Visit our Privacy Policy to learn more. By continuing to use the site, you agree to this use of cookies and data.
  • In Schweiz
  • Länderverzeichnis
  • Für 7 Tage
  • Wassertemperatur
  • Satellitenkarten
  • Wetterkarte
  • Widgets
  • user-avatar
    Anmelden

    Stündliche Wetter Plavs'ke

    Heute, 17 Juli, Mittwoch

    Zeit Temperatur Niederschläge Wind Luftdruck Luftfeuchtigkeit
    00:00 +21°C° 0 mm 2 m/S 753 mmHg 64%
    01:00 +20°C° 0 mm 2 m/S 753 mmHg 67%
    02:00 +20°C° 0 mm 2 m/S 753 mmHg 70%
    03:00 +19°C° 0 mm 2 m/S 753 mmHg 72%
    04:00 +19°C° 0 mm 2 m/S 753 mmHg 74%
    05:00 +19°C° 0 mm 2 m/S 753 mmHg 75%
    06:00 +21°C° 0 mm 2 m/S 753 mmHg 68%
    07:00 +24°C° 0 mm 2 m/S 753 mmHg 60%
    08:00 +25°C° 0 mm 2 m/S 753 mmHg 53%
    09:00 +26°C° 0 mm 2 m/S 753 mmHg 48%
    10:00 +28°C° 0 mm 2 m/S 753 mmHg 43%
    11:00 +29°C° 0 mm 3 m/S 754 mmHg 38%
    12:00 +29°C° 0 mm 2 m/S 753 mmHg 38%
    13:00 +29°C° 0 mm 2 m/S 753 mmHg 38%
    14:00 +29°C° 0 mm 2 m/S 753 mmHg 38%
    15:00 +29°C° 0 mm 2 m/S 753 mmHg 37%
    16:00 +29°C° 0 mm 2 m/S 753 mmHg 37%
    17:00 +29°C° 0 mm 2 m/S 753 mmHg 36%
    18:00 +27°C° 0 mm 2 m/S 753 mmHg 43%
    19:00 +26°C° 0 mm 2 m/S 753 mmHg 49%
    20:00 +24°C° 0 mm 2 m/S 753 mmHg 56%
    21:00 +23°C° 0 mm 2 m/S 753 mmHg 57%
    22:00 +23°C° 0 mm 1 m/S 753 mmHg 58%
    23:00 +22°C° 0 mm 1 m/S 753 mmHg 59%

    Morgen, 18 Juli, Donnerstag

    Zeit Temperatur Niederschläge Wind Luftdruck Luftfeuchtigkeit
    00:00 +19°C° 0 mm 0 m/S 753 mmHg 59%
    01:00 +19°C° 0 mm 0 m/S 753 mmHg 60%
    02:00 +19°C° 0 mm 0 m/S 753 mmHg 61%
    03:00 +21°C° 0 mm 1 m/S 753 mmHg 61%
    04:00 +21°C° 0 mm 1 m/S 753 mmHg 61%
    05:00 +21°C° 0 mm 1 m/S 753 mmHg 61%
    06:00 +23°C° 0 mm 1 m/S 754 mmHg 54%
    07:00 +25°C° 0 mm 2 m/S 754 mmHg 48%
    08:00 +27°C° 0 mm 2 m/S 754 mmHg 41%
    09:00 +28°C° 0 mm 2 m/S 754 mmHg 38%
    10:00 +29°C° 0 mm 2 m/S 754 mmHg 35%
    11:00 +30°C° 0 mm 2 m/S 755 mmHg 32%
    12:00 +30°C° 0 mm 2 m/S 755 mmHg 34%
    13:00 +29°C° 0 mm 3 m/S 755 mmHg 36%
    14:00 +29°C° 0 mm 3 m/S 755 mmHg 38%
    15:00 +29°C° 0 mm 3 m/S 755 mmHg 37%
    16:00 +29°C° 0 mm 3 m/S 755 mmHg 35%
    17:00 +30°C° 0 mm 3 m/S 755 mmHg 34%
    18:00 +28°C° 0 mm 3 m/S 755 mmHg 38%
    19:00 +26°C° 0 mm 2 m/S 755 mmHg 42%
    20:00 +25°C° 0 mm 2 m/S 756 mmHg 46%
    21:00 +24°C° 0 mm 3 m/S 756 mmHg 48%
    22:00 +22°C° 0 mm 3 m/S 757 mmHg 50%
    23:00 +21°C° 0 mm 3 m/S 757 mmHg 52%

    übermorgen, 19 Juli, Freitag

    Zeit Temperatur Niederschläge Wind Luftdruck Luftfeuchtigkeit
    00:00 +20°C° 0 mm 3 m/S 757 mmHg 55%
    01:00 +20°C° 0 mm 3 m/S 757 mmHg 58%
    02:00 +19°C° 0 mm 3 m/S 757 mmHg 61%
    03:00 +19°C° 0 mm 3 m/S 758 mmHg 62%
    04:00 +19°C° 0 mm 2 m/S 758 mmHg 64%
    05:00 +19°C° 0 mm 2 m/S 758 mmHg 65%
    06:00 +21°C° 0 mm 2 m/S 758 mmHg 58%
    07:00 +24°C° 0 mm 2 m/S 759 mmHg 51%
    08:00 +26°C° 0 mm 2 m/S 759 mmHg 44%
    09:00 +27°C° 0 mm 2 m/S 759 mmHg 40%
    10:00 +28°C° 0 mm 2 m/S 759 mmHg 37%
    11:00 +29°C° 0 mm 3 m/S 759 mmHg 33%
    12:00 +30°C° 0 mm 3 m/S 759 mmHg 32%
    13:00 +30°C° 0 mm 3 m/S 759 mmHg 30%
    14:00 +31°C° 0 mm 3 m/S 759 mmHg 29%
    15:00 +31°C° 0 mm 3 m/S 759 mmHg 29%
    16:00 +31°C° 0 mm 3 m/S 759 mmHg 30%
    17:00 +30°C° 0 mm 3 m/S 759 mmHg 30%
    18:00 +28°C° 0 mm 3 m/S 759 mmHg 35%
    19:00 +27°C° 0 mm 2 m/S 759 mmHg 41%
    20:00 +25°C° 0 mm 2 m/S 760 mmHg 46%
    21:00 +24°C° 0 mm 2 m/S 760 mmHg 48%
    22:00 +23°C° 0 mm 2 m/S 760 mmHg 49%
    23:00 +23°C° 0 mm 1 m/S 760 mmHg 51%

    20 Juli, Samstag

    Zeit Temperatur Niederschläge Wind Luftdruck Luftfeuchtigkeit
    00:00 +21°C° 0 mm 2 m/S 760 mmHg 52%
    01:00 +21°C° 0 mm 2 m/S 760 mmHg 53%
    02:00 +20°C° 0 mm 2 m/S 760 mmHg 54%
    03:00 +20°C° 0 mm 2 m/S 760 mmHg 56%
    04:00 +20°C° 0 mm 2 m/S 761 mmHg 57%
    05:00 +20°C° 0 mm 2 m/S 761 mmHg 58%
    06:00 +23°C° 0 mm 2 m/S 761 mmHg 52%
    07:00 +25°C° 0 mm 3 m/S 761 mmHg 47%
    08:00 +28°C° 0 mm 3 m/S 761 mmHg 41%
    09:00 +29°C° 0 mm 3 m/S 761 mmHg 38%
    10:00 +30°C° 0 mm 3 m/S 761 mmHg 35%
    11:00 +31°C° 0 mm 2 m/S 761 mmHg 32%
    12:00 +31°C° 0 mm 3 m/S 761 mmHg 31%
    13:00 +31°C° 0 mm 3 m/S 761 mmHg 30%
    14:00 +33°C° 0 mm 3 m/S 761 mmHg 29%
    15:00 +31°C° 0 mm 3 m/S 761 mmHg 32%
    16:00 +31°C° 0 mm 3 m/S 761 mmHg 34%
    17:00 +30°C° 0 mm 3 m/S 760 mmHg 37%
    18:00 +28°C° 0 mm 2 m/S 761 mmHg 41%
    19:00 +26°C° 0 mm 2 m/S 761 mmHg 45%
    20:00 +25°C° 0 mm 1 m/S 761 mmHg 50%
    21:00 +24°C° 0 mm 1 m/S 761 mmHg 50%
    22:00 +24°C° 0 mm 1 m/S 761 mmHg 51%
    23:00 +23°C° 0 mm 1 m/S 761 mmHg 52%

    21 Juli, Sonntag

    Zeit Temperatur Niederschläge Wind Luftdruck Luftfeuchtigkeit
    00:00 +23°C° 0 mm 1 m/S 761 mmHg 52%
    01:00 +23°C° 0 mm 2 m/S 761 mmHg 51%
    02:00 +21°C° 0 mm 2 m/S 761 mmHg 50%
    03:00 +21°C° 0 mm 2 m/S 760 mmHg 51%
    04:00 +21°C° 0 mm 3 m/S 760 mmHg 51%
    05:00 +21°C° 0 mm 3 m/S 760 mmHg 51%
    06:00 +25°C° 0 mm 3 m/S 760 mmHg 45%
    07:00 +27°C° 0 mm 3 m/S 760 mmHg 39%
    08:00 +29°C° 0 mm 3 m/S 760 mmHg 33%
    09:00 +30°C° 0 mm 3 m/S 760 mmHg 31%
    10:00 +33°C° 0 mm 3 m/S 760 mmHg 29%
    11:00 +34°C° 0 mm 3 m/S 760 mmHg 27%
    12:00 +34°C° 0 mm 3 m/S 760 mmHg 26%
    13:00 +34°C° 0 mm 3 m/S 760 mmHg 26%
    14:00 +34°C° 0 mm 3 m/S 760 mmHg 26%
    15:00 +34°C° 0 mm 3 m/S 760 mmHg 29%
    16:00 +33°C° 0 mm 3 m/S 760 mmHg 31%
    17:00 +31°C° 0 mm 3 m/S 760 mmHg 34%
    18:00 +29°C° 0 mm 3 m/S 760 mmHg 41%
    19:00 +27°C° 0 mm 3 m/S 760 mmHg 48%
    20:00 +26°C° 0 mm 2 m/S 760 mmHg 54%
    21:00 +25°C° 0 mm 2 m/S 760 mmHg 57%
    22:00 +24°C° 0 mm 2 m/S 760 mmHg 60%
    23:00 +24°C° 0 mm 2 m/S 760 mmHg 63%

    22 Juli, Montag

    Zeit Temperatur Niederschläge Wind Luftdruck Luftfeuchtigkeit
    00:00 +23°C° 0 mm 2 m/S 760 mmHg 69%
    01:00 +23°C° 0 mm 2 m/S 760 mmHg 74%
    02:00 +23°C° 0 mm 2 m/S 760 mmHg 80%
    03:00 +23°C° 0 mm 2 m/S 760 mmHg 82%
    04:00 +23°C° 0 mm 2 m/S 760 mmHg 84%
    05:00 +23°C° 0 mm 2 m/S 760 mmHg 85%
    06:00 +25°C° 0 mm 2 m/S 760 mmHg 74%
    07:00 +27°C° 0 mm 2 m/S 760 mmHg 64%
    08:00 +28°C° 0 mm 3 m/S 760 mmHg 53%
    09:00 +30°C° 0 mm 3 m/S 760 mmHg 47%
    10:00 +31°C° 0 mm 3 m/S 760 mmHg 42%
    11:00 +33°C° 0 mm 3 m/S 760 mmHg 36%
    12:00 +33°C° 0 mm 3 m/S 759 mmHg 36%
    13:00 +33°C° 0 mm 4 m/S 759 mmHg 36%
    14:00 +33°C° 0 mm 4 m/S 759 mmHg 36%
    15:00 +32°C° 0 mm 4 m/S 759 mmHg 39%
    16:00 +32°C° 0 mm 4 m/S 758 mmHg 41%
    17:00 +30°C° 0 mm 5 m/S 758 mmHg 43%
    18:00 +29°C° 0 mm 4 m/S 758 mmHg 49%
    19:00 +27°C° 0 mm 3 m/S 758 mmHg 55%
    20:00 +25°C° 0 mm 3 m/S 758 mmHg 61%
    21:00 +25°C° 0 mm 3 m/S 758 mmHg 61%
    22:00 +25°C° 0 mm 3 m/S 758 mmHg 61%
    23:00 +25°C° 0 mm 3 m/S 758 mmHg 61%
    Mehr zeigen